Location: Foligno
(42.9600°N, 12.7050°E)
Time: 11:47:25
(UTC+02:00)

ISS - Pass Details

Date: 19 July 2018
Orbit: 402 x 408 km, 51.6° (Epoch: 21 July)

Event Time Altitude Azimuth Distance (km) Brightness Sun altitude
Rises 03:06:53 0° 304° (NW) 2,331 0.1 -21.2°
Reaches altitude 10° 03:09:16 10° 320° (NW) 1,470 -0.8 -21.0°
Maximum altitude 03:11:57 23° 14° (NNE) 931 -1.2 -20.8°
Drops below altitude 10° 03:14:38 10° 69° (ENE) 1,469 -0.3 -20.5°
Sets 03:17:01 0° 85° (E) 2,329 0.5 -20.3°
